Year,Month,Day,Hour,Minute,Value (Times are PST for temperature in C)
2010,07,09,00,00,18.00
2010,07,09,00,01,18.00
2010,07,09,00,02,18.00
2010,07,09,00,03,18.00
2010,07,09,00,04,17.90
2010,07,09,00,05,17.90
2010,07,09,00,06,17.90
2010,07,09,00,07,17.90
2010,07,09,00,08,17.80
2010,07,09,00,09,17.80
2010,07,09,00,10,17.80
2010,07,09,00,11,17.80
2010,07,09,00,12,17.80
2010,07,09,00,13,17.80
2010,07,09,00,14,17.80
2010,07,09,00,15,17.80
2010,07,09,00,16,17.80
2010,07,09,00,17,17.70
2010,07,09,00,18,17.70
2010,07,09,00,19,17.70
2010,07,09,00,20,17.70
2010,07,09,00,21,17.70
2010,07,09,00,22,17.70
2010,07,09,00,23,17.70
2010,07,09,00,24,17.60
2010,07,09,00,25,17.60
2010,07,09,00,26,17.60
2010,07,09,00,27,17.60
2010,07,09,00,28,17.60
2010,07,09,00,29,17.60
2010,07,09,00,30,17.60
2010,07,09,00,31,17.60
2010,07,09,00,32,17.60
2010,07,09,00,33,17.60
2010,07,09,00,34,17.60
2010,07,09,00,35,17.60
2010,07,09,00,36,17.60
2010,07,09,00,37,17.60
2010,07,09,00,38,17.60
2010,07,09,00,39,17.60
2010,07,09,00,40,17.60
2010,07,09,00,41,17.60
2010,07,09,00,42,17.60
2010,07,09,00,43,17.60
2010,07,09,00,44,17.60
2010,07,09,00,45,17.60
2010,07,09,00,46,17.60
2010,07,09,00,47,17.60
2010,07,09,00,48,17.60
2010,07,09,00,49,17.60
2010,07,09,00,50,17.60
2010,07,09,00,51,17.60
2010,07,09,00,52,17.60
2010,07,09,00,53,17.60
2010,07,09,00,54,17.60
2010,07,09,00,55,17.60
2010,07,09,00,56,17.60
2010,07,09,00,57,17.60
2010,07,09,00,58,17.60
2010,07,09,00,59,17.60
2010,07,09,01,00,17.60
2010,07,09,01,01,17.60
2010,07,09,01,02,17.60
2010,07,09,01,03,17.60
2010,07,09,01,04,17.60
2010,07,09,01,05,17.60
2010,07,09,01,06,17.60
2010,07,09,01,07,17.60
2010,07,09,01,08,17.60
2010,07,09,01,09,17.60
2010,07,09,01,10,17.60
2010,07,09,01,11,17.60
2010,07,09,01,12,17.60
2010,07,09,01,13,17.60
2010,07,09,01,14,17.60
2010,07,09,01,15,17.60
2010,07,09,01,16,17.50
2010,07,09,01,17,17.50
2010,07,09,01,18,17.50
2010,07,09,01,19,17.50
2010,07,09,01,20,17.50
2010,07,09,01,21,17.50
2010,07,09,01,22,17.40
2010,07,09,01,23,17.40
2010,07,09,01,24,17.40
2010,07,09,01,25,17.40
2010,07,09,01,26,17.40
2010,07,09,01,27,17.40
2010,07,09,01,28,17.40
2010,07,09,01,29,17.30
2010,07,09,01,30,17.30
2010,07,09,01,31,17.30
2010,07,09,01,32,17.30
2010,07,09,01,33,17.30
2010,07,09,01,34,17.30
2010,07,09,01,35,17.30
2010,07,09,01,36,17.30
2010,07,09,01,37,17.30
2010,07,09,01,38,17.20
2010,07,09,01,39,17.20
2010,07,09,01,40,17.20
2010,07,09,01,41,17.20
2010,07,09,01,42,17.20
2010,07,09,01,43,17.20
2010,07,09,01,44,17.20
2010,07,09,01,45,17.10
2010,07,09,01,46,17.10
2010,07,09,01,47,17.20
2010,07,09,01,48,17.20
2010,07,09,01,49,17.20
2010,07,09,01,50,17.20
2010,07,09,01,51,17.20
2010,07,09,01,52,17.20
2010,07,09,01,53,17.20
2010,07,09,01,54,17.20
2010,07,09,01,55,17.20
2010,07,09,01,56,17.20
2010,07,09,01,57,17.20
2010,07,09,01,58,17.20
2010,07,09,01,59,17.20
2010,07,09,02,00,17.20
2010,07,09,02,01,17.20
2010,07,09,02,02,17.20
2010,07,09,02,03,17.20
2010,07,09,02,04,17.10
2010,07,09,02,05,17.10
2010,07,09,02,06,17.10
2010,07,09,02,07,17.10
2010,07,09,02,08,17.10
2010,07,09,02,09,17.10
2010,07,09,02,10,17.20
2010,07,09,02,11,17.20
2010,07,09,02,12,17.30
2010,07,09,02,13,17.30
2010,07,09,02,14,17.30
2010,07,09,02,15,17.30
2010,07,09,02,16,17.30
2010,07,09,02,17,17.30
2010,07,09,02,18,17.30
2010,07,09,02,19,17.30
2010,07,09,02,20,17.30
2010,07,09,02,21,17.30
2010,07,09,02,22,17.30
2010,07,09,02,23,17.30
2010,07,09,02,24,17.30
2010,07,09,02,25,17.30
2010,07,09,02,26,17.30
2010,07,09,02,27,17.30
2010,07,09,02,28,17.30
2010,07,09,02,29,17.30
2010,07,09,02,30,17.30
2010,07,09,02,31,17.30
2010,07,09,02,32,17.30
2010,07,09,02,33,17.30
2010,07,09,02,34,17.20
2010,07,09,02,35,17.20
2010,07,09,02,36,17.20
2010,07,09,02,37,17.20
2010,07,09,02,38,17.20
2010,07,09,02,39,17.20
2010,07,09,02,40,17.20
2010,07,09,02,41,17.20
2010,07,09,02,42,17.20
2010,07,09,02,43,17.20
2010,07,09,02,44,17.20
2010,07,09,02,45,17.20
2010,07,09,02,46,17.20
2010,07,09,02,47,17.20
2010,07,09,02,48,17.20
2010,07,09,02,49,17.20
2010,07,09,02,50,17.20
2010,07,09,02,51,17.20
2010,07,09,02,52,17.20
2010,07,09,02,53,17.20
2010,07,09,02,54,17.20
2010,07,09,02,55,17.20
2010,07,09,02,56,17.30
2010,07,09,02,57,17.30
2010,07,09,02,58,17.30
2010,07,09,02,59,17.30
2010,07,09,03,00,17.30
2010,07,09,03,01,17.20
2010,07,09,03,02,17.20
2010,07,09,03,03,17.20
2010,07,09,03,04,17.20
2010,07,09,03,05,17.20
2010,07,09,03,06,17.20
2010,07,09,03,07,17.20
2010,07,09,03,08,17.20
2010,07,09,03,09,17.30
2010,07,09,03,10,17.30
2010,07,09,03,11,17.30
2010,07,09,03,12,17.30
2010,07,09,03,13,17.30
2010,07,09,03,14,17.30
2010,07,09,03,15,17.30
2010,07,09,03,16,17.30
2010,07,09,03,17,17.20
2010,07,09,03,18,17.20
2010,07,09,03,19,17.20
2010,07,09,03,20,17.20
2010,07,09,03,21,17.20
2010,07,09,03,22,17.20
2010,07,09,03,23,17.10
2010,07,09,03,24,17.10
2010,07,09,03,25,17.10
2010,07,09,03,26,17.10
2010,07,09,03,27,17.10
2010,07,09,03,28,17.10
2010,07,09,03,29,17.10
2010,07,09,03,30,17.10
2010,07,09,03,31,17.10
2010,07,09,03,32,17.10
2010,07,09,03,33,17.10
2010,07,09,03,34,17.10
2010,07,09,03,35,17.00
2010,07,09,03,36,17.10
2010,07,09,03,37,17.00
2010,07,09,03,38,17.00
2010,07,09,03,39,17.10
2010,07,09,03,40,17.10
2010,07,09,03,41,17.10
2010,07,09,03,42,17.10
2010,07,09,03,43,17.20
2010,07,09,03,44,17.20
2010,07,09,03,45,17.20
2010,07,09,03,46,17.20
2010,07,09,03,47,17.20
2010,07,09,03,48,17.20
2010,07,09,03,49,17.20
2010,07,09,03,50,17.20
2010,07,09,03,51,17.20
2010,07,09,03,52,17.20
2010,07,09,03,53,17.20
2010,07,09,03,54,17.20
2010,07,09,03,55,17.20
2010,07,09,03,56,17.20
2010,07,09,03,57,17.20
2010,07,09,03,58,17.20
2010,07,09,03,59,17.20
2010,07,09,04,00,17.20
2010,07,09,04,01,17.20
2010,07,09,04,02,17.20
2010,07,09,04,03,17.20
2010,07,09,04,04,17.20
2010,07,09,04,05,17.10
2010,07,09,04,06,17.20
2010,07,09,04,07,17.20
2010,07,09,04,08,17.20
2010,07,09,04,09,17.20
2010,07,09,04,10,17.20
2010,07,09,04,11,17.20
2010,07,09,04,12,17.20
2010,07,09,04,13,17.20
2010,07,09,04,14,17.20
2010,07,09,04,15,17.20
2010,07,09,04,16,17.20
2010,07,09,04,17,17.20
2010,07,09,04,18,17.10
2010,07,09,04,19,17.10
2010,07,09,04,20,17.10
2010,07,09,04,21,17.10
2010,07,09,04,22,17.10
2010,07,09,04,23,17.10
2010,07,09,04,24,17.10
2010,07,09,04,25,17.10
2010,07,09,04,26,17.10
2010,07,09,04,27,17.10
2010,07,09,04,28,17.10
2010,07,09,04,29,17.10
2010,07,09,04,30,17.10
2010,07,09,04,31,17.10
2010,07,09,04,32,17.00
2010,07,09,04,33,17.00
2010,07,09,04,34,17.00
2010,07,09,04,35,17.00
2010,07,09,04,36,16.90
2010,07,09,04,37,17.00
2010,07,09,04,38,17.00
2010,07,09,04,39,17.00
2010,07,09,04,40,17.00
2010,07,09,04,41,17.00
2010,07,09,04,42,17.00
2010,07,09,04,43,17.00
2010,07,09,04,44,17.10
2010,07,09,04,45,17.10
2010,07,09,04,46,17.10
2010,07,09,04,47,17.10
2010,07,09,04,48,17.10
2010,07,09,04,49,17.10
2010,07,09,04,50,17.10
2010,07,09,04,51,17.10
2010,07,09,04,52,17.10
2010,07,09,04,53,17.20
2010,07,09,04,54,17.20
2010,07,09,04,55,17.20
2010,07,09,04,56,17.20
2010,07,09,04,57,17.20
2010,07,09,04,58,17.20
2010,07,09,04,59,17.20
2010,07,09,05,00,17.20
2010,07,09,05,01,17.20
2010,07,09,05,02,17.20
2010,07,09,05,03,17.20
2010,07,09,05,04,17.20
2010,07,09,05,05,17.30
2010,07,09,05,06,17.30
2010,07,09,05,07,17.20
2010,07,09,05,08,17.20
2010,07,09,05,09,17.20
2010,07,09,05,10,17.20
2010,07,09,05,11,17.20
2010,07,09,05,12,17.20
2010,07,09,05,13,17.30
2010,07,09,05,14,17.30
2010,07,09,05,15,17.30
2010,07,09,05,16,17.30
2010,07,09,05,17,17.40
2010,07,09,05,18,17.40
2010,07,09,05,19,17.40
2010,07,09,05,20,17.40
2010,07,09,05,21,17.40
2010,07,09,05,22,17.50
2010,07,09,05,23,17.50
2010,07,09,05,24,17.60
2010,07,09,05,25,17.60
2010,07,09,05,26,17.60
2010,07,09,05,27,17.70
2010,07,09,05,28,17.70
2010,07,09,05,29,17.70
2010,07,09,05,30,17.70
2010,07,09,05,31,17.80
2010,07,09,05,32,17.80
2010,07,09,05,33,17.80
2010,07,09,05,34,17.80
2010,07,09,05,35,17.80
2010,07,09,05,36,17.80
2010,07,09,05,37,17.80
2010,07,09,05,38,17.80
2010,07,09,05,39,17.80
2010,07,09,05,40,17.80
2010,07,09,05,41,17.80
2010,07,09,05,42,17.90
2010,07,09,05,43,17.90
2010,07,09,05,44,17.80
2010,07,09,05,45,17.80
2010,07,09,05,46,17.80
2010,07,09,05,47,17.80
2010,07,09,05,48,17.80
2010,07,09,05,49,17.70
2010,07,09,05,50,17.80
2010,07,09,05,51,17.80
2010,07,09,05,52,17.70
2010,07,09,05,53,17.70
2010,07,09,05,54,17.70
2010,07,09,05,55,17.70
2010,07,09,05,56,17.70
2010,07,09,05,57,17.80
2010,07,09,05,58,17.80
2010,07,09,05,59,17.80
2010,07,09,06,00,17.70
2010,07,09,06,01,17.80
2010,07,09,06,02,17.80
2010,07,09,06,03,17.80
2010,07,09,06,04,17.80
2010,07,09,06,05,17.80
2010,07,09,06,06,17.80
2010,07,09,06,07,17.80
2010,07,09,06,08,17.80
2010,07,09,06,09,17.80
2010,07,09,06,10,17.80
2010,07,09,06,11,17.80
2010,07,09,06,12,17.80
2010,07,09,06,13,17.90
2010,07,09,06,14,17.90
2010,07,09,06,15,17.90
2010,07,09,06,16,18.00
2010,07,09,06,17,18.00
2010,07,09,06,18,18.00
2010,07,09,06,19,18.00
2010,07,09,06,20,18.00
2010,07,09,06,21,18.10
2010,07,09,06,22,18.10
2010,07,09,06,23,18.10
2010,07,09,06,24,18.10
2010,07,09,06,25,18.10
2010,07,09,06,26,18.10
2010,07,09,06,27,18.10
2010,07,09,06,28,18.00
2010,07,09,06,29,18.00
2010,07,09,06,30,18.10
2010,07,09,06,31,18.10
2010,07,09,06,32,18.10
2010,07,09,06,33,18.10
2010,07,09,06,34,18.10
2010,07,09,06,35,18.10
2010,07,09,06,36,18.20
2010,07,09,06,37,18.20
2010,07,09,06,38,18.20
2010,07,09,06,39,18.20
2010,07,09,06,40,18.20
2010,07,09,06,41,18.30
2010,07,09,06,42,18.30
2010,07,09,06,43,18.30
2010,07,09,06,44,18.30
2010,07,09,06,45,18.40
2010,07,09,06,46,18.40
2010,07,09,06,47,18.50
2010,07,09,06,48,18.50
2010,07,09,06,49,18.60
2010,07,09,06,50,18.70
2010,07,09,06,51,18.70
2010,07,09,06,52,18.80
2010,07,09,06,53,18.80
2010,07,09,06,54,18.90
2010,07,09,06,55,19.00
2010,07,09,06,56,19.00
2010,07,09,06,57,19.10
2010,07,09,06,58,19.20
2010,07,09,06,59,19.20
2010,07,09,07,00,19.30
2010,07,09,07,01,19.30
2010,07,09,07,02,19.40
2010,07,09,07,03,19.40
2010,07,09,07,04,19.50
2010,07,09,07,05,19.60
2010,07,09,07,06,19.60
2010,07,09,07,07,19.70
2010,07,09,07,08,19.80
2010,07,09,07,09,19.80
2010,07,09,07,10,19.90
2010,07,09,07,11,20.00
2010,07,09,07,12,20.10
2010,07,09,07,13,20.10
2010,07,09,07,14,20.20
2010,07,09,07,15,20.30
2010,07,09,07,16,20.40
2010,07,09,07,17,20.50
2010,07,09,07,18,20.60
2010,07,09,07,19,20.70
2010,07,09,07,20,20.80
2010,07,09,07,21,20.80
2010,07,09,07,22,21.00
2010,07,09,07,23,21.00
2010,07,09,07,24,21.10
2010,07,09,07,25,21.20
2010,07,09,07,26,21.20
2010,07,09,07,27,21.30
2010,07,09,07,28,21.30
2010,07,09,07,29,21.30
2010,07,09,07,30,21.40
2010,07,09,07,31,21.40
2010,07,09,07,32,21.50
2010,07,09,07,33,21.50
2010,07,09,07,34,21.60
2010,07,09,07,35,21.60
2010,07,09,07,36,21.70
2010,07,09,07,37,21.70
2010,07,09,07,38,21.80
2010,07,09,07,39,21.80
2010,07,09,07,40,21.80
2010,07,09,07,41,21.90
2010,07,09,07,42,22.00
2010,07,09,07,43,22.00
2010,07,09,07,44,22.10
2010,07,09,07,45,22.20
2010,07,09,07,46,22.30
2010,07,09,07,47,22.40
2010,07,09,07,48,22.50
2010,07,09,07,49,22.60
2010,07,09,07,50,22.70
2010,07,09,07,51,22.70
2010,07,09,07,52,22.80
2010,07,09,07,53,22.90
2010,07,09,07,54,23.00
2010,07,09,07,55,23.10
2010,07,09,07,56,23.10
2010,07,09,07,57,23.20
2010,07,09,07,58,23.30
2010,07,09,07,59,23.40
2010,07,09,08,00,23.40
2010,07,09,08,01,23.50
2010,07,09,08,02,23.60
2010,07,09,08,03,23.60
2010,07,09,08,04,23.60
2010,07,09,08,05,23.60
2010,07,09,08,06,23.70
2010,07,09,08,07,23.70
2010,07,09,08,08,23.70
2010,07,09,08,09,23.70
2010,07,09,08,10,23.70
2010,07,09,08,11,23.60
2010,07,09,08,12,23.60
2010,07,09,08,13,23.60
2010,07,09,08,14,23.60
2010,07,09,08,15,23.60
2010,07,09,08,16,23.50
2010,07,09,08,17,23.50
2010,07,09,08,18,23.50
2010,07,09,08,19,23.40
2010,07,09,08,20,23.40
2010,07,09,08,21,23.40
2010,07,09,08,22,23.40
2010,07,09,08,23,23.40
2010,07,09,08,24,23.40
2010,07,09,08,25,23.40
2010,07,09,08,26,23.40
2010,07,09,08,27,23.40
2010,07,09,08,28,23.40
2010,07,09,08,29,23.40
2010,07,09,08,30,23.50
2010,07,09,08,31,23.50
2010,07,09,08,32,23.60
2010,07,09,08,33,23.60
2010,07,09,08,34,23.70
2010,07,09,08,35,23.70
2010,07,09,08,36,23.80
2010,07,09,08,37,23.80
2010,07,09,08,38,23.80
2010,07,09,08,39,23.80
2010,07,09,08,40,23.90
2010,07,09,08,41,23.90
2010,07,09,08,42,23.90
2010,07,09,08,43,23.90
2010,07,09,08,44,23.90
2010,07,09,08,45,23.90
2010,07,09,08,46,23.90
2010,07,09,08,47,24.00
2010,07,09,08,48,24.00
2010,07,09,08,49,24.00
2010,07,09,08,50,24.10
2010,07,09,08,51,24.10
2010,07,09,08,52,24.10
2010,07,09,08,53,24.10
2010,07,09,08,54,24.10
2010,07,09,08,55,24.20
2010,07,09,08,56,24.20
2010,07,09,08,57,24.20
2010,07,09,08,58,24.20
2010,07,09,08,59,24.30
2010,07,09,09,00,24.30
2010,07,09,09,01,24.40
2010,07,09,09,02,24.40
2010,07,09,09,03,24.40
2010,07,09,09,04,24.50
2010,07,09,09,05,24.60
2010,07,09,09,06,24.60
2010,07,09,09,07,24.60
2010,07,09,09,08,24.70
2010,07,09,09,09,24.70
2010,07,09,09,10,24.70
2010,07,09,09,11,24.80
2010,07,09,09,12,24.80
2010,07,09,09,13,24.90
2010,07,09,09,14,24.90
2010,07,09,09,15,24.90
2010,07,09,09,16,25.00
2010,07,09,09,17,25.00
2010,07,09,09,18,25.10
2010,07,09,09,19,25.10
2010,07,09,09,20,25.10
2010,07,09,09,21,25.10
2010,07,09,09,22,25.10
2010,07,09,09,23,25.10
2010,07,09,09,24,25.10
2010,07,09,09,25,25.10
2010,07,09,09,26,25.10
2010,07,09,09,27,25.10
2010,07,09,09,28,25.20
2010,07,09,09,29,25.20
2010,07,09,09,30,25.20
2010,07,09,09,31,25.10
2010,07,09,09,32,25.10
2010,07,09,09,33,25.10
2010,07,09,09,34,25.10
2010,07,09,09,35,25.10
2010,07,09,09,36,25.10
2010,07,09,09,37,25.10
2010,07,09,09,38,25.10
2010,07,09,09,39,25.20
2010,07,09,09,40,25.20
2010,07,09,09,41,25.20
2010,07,09,09,42,25.30
2010,07,09,09,43,25.40
2010,07,09,09,44,25.40
2010,07,09,09,45,25.60
2010,07,09,09,46,25.60
2010,07,09,09,47,25.70
2010,07,09,09,48,25.90
2010,07,09,09,49,25.90
2010,07,09,09,50,26.00
2010,07,09,09,51,26.10
2010,07,09,09,52,26.20
2010,07,09,09,53,26.20
2010,07,09,09,54,26.30
2010,07,09,09,55,26.30
2010,07,09,09,56,26.40
2010,07,09,09,57,26.40
2010,07,09,09,58,26.40
2010,07,09,09,59,26.50
2010,07,09,10,00,26.50
2010,07,09,10,01,26.60
2010,07,09,10,02,26.70
2010,07,09,10,03,26.70
2010,07,09,10,04,26.80
2010,07,09,10,05,26.80
2010,07,09,10,06,26.80
2010,07,09,10,07,26.80
2010,07,09,10,08,26.80
2010,07,09,10,09,26.80
2010,07,09,10,10,26.80
2010,07,09,10,11,26.90
2010,07,09,10,12,26.80
2010,07,09,10,13,26.90
2010,07,09,10,14,26.90
2010,07,09,10,15,26.90
2010,07,09,10,16,26.90
2010,07,09,10,17,26.90
2010,07,09,10,18,26.90
2010,07,09,10,19,27.00
2010,07,09,10,20,27.00
2010,07,09,10,21,27.00
2010,07,09,10,22,27.00
2010,07,09,10,23,27.00
2010,07,09,10,24,27.10
2010,07,09,10,25,27.10
2010,07,09,10,26,27.10
2010,07,09,10,27,27.20
2010,07,09,10,28,27.20
2010,07,09,10,29,27.30
2010,07,09,10,30,27.30
2010,07,09,10,31,27.30
2010,07,09,10,32,27.30
2010,07,09,10,33,27.40
2010,07,09,10,34,27.40
2010,07,09,10,35,27.50
2010,07,09,10,36,27.50
2010,07,09,10,37,27.60
2010,07,09,10,38,27.70
2010,07,09,10,39,27.80
2010,07,09,10,40,27.80
2010,07,09,10,41,27.90
2010,07,09,10,42,27.90
2010,07,09,10,43,28.00
2010,07,09,10,44,28.00
2010,07,09,10,45,28.00
2010,07,09,10,46,28.00
2010,07,09,10,47,27.90
2010,07,09,10,48,27.90
2010,07,09,10,49,27.80
2010,07,09,10,50,27.70
2010,07,09,10,51,27.70
2010,07,09,10,52,27.70
2010,07,09,10,53,27.60
2010,07,09,10,54,27.60
2010,07,09,10,55,27.50
2010,07,09,10,56,27.40
2010,07,09,10,57,27.30
2010,07,09,10,58,27.30
2010,07,09,10,59,27.30
2010,07,09,11,00,27.30
2010,07,09,11,01,27.30
2010,07,09,11,02,27.30
2010,07,09,11,03,27.40
2010,07,09,11,04,27.40
2010,07,09,11,05,27.50
2010,07,09,11,06,27.50
2010,07,09,11,07,27.50
2010,07,09,11,08,27.50
2010,07,09,11,09,27.50
2010,07,09,11,10,27.60
2010,07,09,11,11,27.60
2010,07,09,11,12,27.60
2010,07,09,11,13,27.60
2010,07,09,11,14,27.60
2010,07,09,11,15,27.50
2010,07,09,11,16,27.40
2010,07,09,11,17,27.40
2010,07,09,11,18,27.40
2010,07,09,11,19,27.30
2010,07,09,11,20,27.30
2010,07,09,11,21,27.30
2010,07,09,11,22,27.30
2010,07,09,11,23,27.20
2010,07,09,11,24,27.20
2010,07,09,11,25,27.10
2010,07,09,11,26,27.10
2010,07,09,11,27,27.10
2010,07,09,11,28,27.10
2010,07,09,11,29,27.10
2010,07,09,11,30,27.10
2010,07,09,11,31,27.20
2010,07,09,11,32,27.20
2010,07,09,11,33,27.20
2010,07,09,11,34,27.20
2010,07,09,11,35,27.20
2010,07,09,11,36,27.30
2010,07,09,11,37,27.30
2010,07,09,11,38,27.30
2010,07,09,11,39,27.30
2010,07,09,11,40,27.30
2010,07,09,11,41,27.30
2010,07,09,11,42,27.30
2010,07,09,11,43,27.40
2010,07,09,11,44,27.40
2010,07,09,11,45,27.40
2010,07,09,11,46,27.40
2010,07,09,11,47,27.40
2010,07,09,11,48,27.40
2010,07,09,11,49,27.50
2010,07,09,11,50,27.50
2010,07,09,11,51,27.60
2010,07,09,11,52,27.70
2010,07,09,11,53,27.70
2010,07,09,11,54,27.80
2010,07,09,11,55,27.80
2010,07,09,11,56,27.80
2010,07,09,11,57,27.80
2010,07,09,11,58,27.80
2010,07,09,11,59,27.90
2010,07,09,12,00,27.90
2010,07,09,12,01,27.90
2010,07,09,12,02,28.00
2010,07,09,12,03,27.90
2010,07,09,12,04,27.90
2010,07,09,12,05,27.90
2010,07,09,12,06,28.00
2010,07,09,12,07,28.00
2010,07,09,12,08,27.90
2010,07,09,12,09,27.90
2010,07,09,12,10,27.90
2010,07,09,12,11,27.80
2010,07,09,12,12,27.80
2010,07,09,12,13,27.70
2010,07,09,12,14,27.70
2010,07,09,12,15,27.60
2010,07,09,12,16,27.50
2010,07,09,12,17,27.40
2010,07,09,12,18,27.40
2010,07,09,12,19,27.30
2010,07,09,12,20,27.20
2010,07,09,12,21,27.20
2010,07,09,12,22,27.20
2010,07,09,12,23,27.30
2010,07,09,12,24,27.20
2010,07,09,12,25,27.20
2010,07,09,12,26,27.30
2010,07,09,12,27,27.20
2010,07,09,12,28,27.30
2010,07,09,12,29,27.30
2010,07,09,12,30,27.30
2010,07,09,12,31,27.30
2010,07,09,12,32,27.30
2010,07,09,12,33,27.30
2010,07,09,12,34,27.20
2010,07,09,12,35,27.20
2010,07,09,12,36,27.10
2010,07,09,12,37,27.00
2010,07,09,12,38,27.00
2010,07,09,12,39,27.00
2010,07,09,12,40,27.00
2010,07,09,12,41,26.90
2010,07,09,12,42,26.80
2010,07,09,12,43,26.80
2010,07,09,12,44,26.70
2010,07,09,12,45,26.70
2010,07,09,12,46,26.70
2010,07,09,12,47,26.70
2010,07,09,12,48,26.80
2010,07,09,12,49,26.80
2010,07,09,12,50,26.80
2010,07,09,12,51,26.90
2010,07,09,12,52,26.90
2010,07,09,12,53,27.00
2010,07,09,12,54,27.10
2010,07,09,12,55,27.10
2010,07,09,12,56,27.20
2010,07,09,12,57,27.20
2010,07,09,12,58,27.30
2010,07,09,12,59,27.30
2010,07,09,13,00,27.30
2010,07,09,13,01,27.30
2010,07,09,13,02,27.30
2010,07,09,13,03,27.30
2010,07,09,13,04,27.40
2010,07,09,13,05,27.40
2010,07,09,13,06,27.40
2010,07,09,13,07,27.40
2010,07,09,13,08,27.40
2010,07,09,13,09,27.30
2010,07,09,13,10,27.20
2010,07,09,13,11,27.20
2010,07,09,13,12,27.20
2010,07,09,13,13,27.20
2010,07,09,13,14,27.20
2010,07,09,13,15,27.20
2010,07,09,13,16,27.30
2010,07,09,13,17,27.30
2010,07,09,13,18,27.30
2010,07,09,13,19,27.40
2010,07,09,13,20,27.40
2010,07,09,13,21,27.40
2010,07,09,13,22,27.40
2010,07,09,13,23,27.40
2010,07,09,13,24,27.40
2010,07,09,13,25,27.50
2010,07,09,13,26,27.50
2010,07,09,13,27,27.60
2010,07,09,13,28,27.60
2010,07,09,13,29,27.60
2010,07,09,13,30,27.60
2010,07,09,13,31,27.70
2010,07,09,13,32,27.80
2010,07,09,13,33,27.80
2010,07,09,13,34,27.80
2010,07,09,13,35,27.80
2010,07,09,13,36,27.80
2010,07,09,13,37,27.80
2010,07,09,13,38,27.80
2010,07,09,13,39,27.80
2010,07,09,13,40,27.80
2010,07,09,13,41,27.80
2010,07,09,13,42,27.80
2010,07,09,13,43,27.80
2010,07,09,13,44,27.80
2010,07,09,13,45,27.80
2010,07,09,13,46,27.80
2010,07,09,13,47,27.80
2010,07,09,13,48,27.80
2010,07,09,13,49,27.80
2010,07,09,13,50,27.90
2010,07,09,13,51,27.80
2010,07,09,13,52,27.80
2010,07,09,13,53,27.80
2010,07,09,13,54,27.90
2010,07,09,13,55,27.90
2010,07,09,13,56,27.90
2010,07,09,13,57,27.90
2010,07,09,13,58,27.80
2010,07,09,13,59,27.90
2010,07,09,14,00,27.90
2010,07,09,14,01,27.90
2010,07,09,14,02,28.00
2010,07,09,14,03,28.00
2010,07,09,14,04,27.90
2010,07,09,14,05,27.90
2010,07,09,14,06,27.90
2010,07,09,14,07,27.90
2010,07,09,14,08,27.90
2010,07,09,14,09,27.80
2010,07,09,14,10,27.80
2010,07,09,14,11,27.90
2010,07,09,14,12,27.90
2010,07,09,14,13,27.90
2010,07,09,14,14,27.90
2010,07,09,14,15,27.90
2010,07,09,14,16,27.90
2010,07,09,14,17,28.00
2010,07,09,14,18,28.00
2010,07,09,14,19,27.90
2010,07,09,14,20,27.90
2010,07,09,14,21,27.90
2010,07,09,14,22,27.90
2010,07,09,14,23,27.90
2010,07,09,14,24,27.80
2010,07,09,14,25,27.80
2010,07,09,14,26,27.80
2010,07,09,14,27,27.80
2010,07,09,14,28,27.80
2010,07,09,14,29,27.80
2010,07,09,14,30,27.80
2010,07,09,14,31,27.70
2010,07,09,14,32,27.80
2010,07,09,14,33,27.80
2010,07,09,14,34,27.80
2010,07,09,14,35,27.80
2010,07,09,14,36,27.90
2010,07,09,14,37,27.90
2010,07,09,14,38,28.00
2010,07,09,14,39,28.10
2010,07,09,14,40,28.20
2010,07,09,14,41,28.30
2010,07,09,14,42,28.30
2010,07,09,14,43,28.40
2010,07,09,14,44,28.50
2010,07,09,14,45,28.60
2010,07,09,14,46,28.60
2010,07,09,14,47,28.60
2010,07,09,14,48,28.60
2010,07,09,14,49,28.60
2010,07,09,14,50,28.60
2010,07,09,14,51,28.70
2010,07,09,14,52,28.70
2010,07,09,14,53,28.80
2010,07,09,14,54,28.90
2010,07,09,14,55,28.90
2010,07,09,14,56,28.90
2010,07,09,14,57,28.80
2010,07,09,14,58,28.80
2010,07,09,14,59,28.80
2010,07,09,15,00,28.70
2010,07,09,15,01,28.70
2010,07,09,15,02,28.70
2010,07,09,15,03,28.70
2010,07,09,15,04,28.70
2010,07,09,15,05,28.70
2010,07,09,15,06,28.70
2010,07,09,15,07,28.80
2010,07,09,15,08,28.90
2010,07,09,15,09,28.90
2010,07,09,15,10,28.90
2010,07,09,15,11,29.00
2010,07,09,15,12,29.00
2010,07,09,15,13,29.10
2010,07,09,15,14,29.10
2010,07,09,15,15,29.10
2010,07,09,15,16,29.10
2010,07,09,15,17,29.20
2010,07,09,15,18,29.20
2010,07,09,15,19,29.20
2010,07,09,15,20,29.20
2010,07,09,15,21,29.20
2010,07,09,15,22,29.10
2010,07,09,15,23,29.10
2010,07,09,15,24,29.00
2010,07,09,15,25,29.00
2010,07,09,15,26,29.00
2010,07,09,15,27,29.00
2010,07,09,15,28,29.00
2010,07,09,15,29,28.90
2010,07,09,15,30,28.90
2010,07,09,15,31,28.90
2010,07,09,15,32,28.90
2010,07,09,15,33,28.90
2010,07,09,15,34,28.90
2010,07,09,15,35,29.00
2010,07,09,15,36,29.00
2010,07,09,15,37,29.00
2010,07,09,15,38,29.00
2010,07,09,15,39,29.10
2010,07,09,15,40,29.10
2010,07,09,15,41,29.10
2010,07,09,15,42,29.10
2010,07,09,15,43,29.10
2010,07,09,15,44,29.10
2010,07,09,15,45,29.10
2010,07,09,15,46,29.20
2010,07,09,15,47,29.20
2010,07,09,15,48,29.20
2010,07,09,15,49,29.20
2010,07,09,15,50,29.10
2010,07,09,15,51,29.10
2010,07,09,15,52,29.10
2010,07,09,15,53,29.00
2010,07,09,15,54,29.00
2010,07,09,15,55,29.00
2010,07,09,15,56,28.90
2010,07,09,15,57,28.90
2010,07,09,15,58,28.90
2010,07,09,15,59,28.90
2010,07,09,16,00,28.80
2010,07,09,16,01,28.80
2010,07,09,16,02,28.80
2010,07,09,16,03,28.90
2010,07,09,16,04,28.90
2010,07,09,16,05,28.90
2010,07,09,16,06,29.00
2010,07,09,16,07,29.00
2010,07,09,16,08,29.10
2010,07,09,16,09,29.20
2010,07,09,16,10,29.20
2010,07,09,16,11,29.30
2010,07,09,16,12,29.30
2010,07,09,16,13,29.30
2010,07,09,16,14,29.40
2010,07,09,16,15,29.40
2010,07,09,16,16,29.50
2010,07,09,16,17,29.60
2010,07,09,16,18,29.60
2010,07,09,16,19,29.70
2010,07,09,16,20,29.70
2010,07,09,16,21,29.80
2010,07,09,16,22,29.80
2010,07,09,16,23,29.80
2010,07,09,16,24,29.80
2010,07,09,16,25,29.80
2010,07,09,16,26,29.80
2010,07,09,16,27,29.80
2010,07,09,16,28,29.70
2010,07,09,16,29,29.70
2010,07,09,16,30,29.70
2010,07,09,16,31,29.70
2010,07,09,16,32,29.60
2010,07,09,16,33,29.60
2010,07,09,16,34,29.50
2010,07,09,16,35,29.50
2010,07,09,16,36,29.50
2010,07,09,16,37,29.50
2010,07,09,16,38,29.60
2010,07,09,16,39,29.60
2010,07,09,16,40,29.60
2010,07,09,16,41,29.60
2010,07,09,16,42,29.60
2010,07,09,16,43,29.60
2010,07,09,16,44,29.50
2010,07,09,16,45,29.50
2010,07,09,16,46,29.50
2010,07,09,16,47,29.50
2010,07,09,16,48,29.50
2010,07,09,16,49,29.50
2010,07,09,16,50,29.50
2010,07,09,16,51,29.50
2010,07,09,16,52,29.50
2010,07,09,16,53,29.50
2010,07,09,16,54,29.40
2010,07,09,16,55,29.40
2010,07,09,16,56,29.40
2010,07,09,16,57,29.30
2010,07,09,16,58,29.30
2010,07,09,16,59,29.30
2010,07,09,17,00,29.30
2010,07,09,17,01,29.30
2010,07,09,17,02,29.30
2010,07,09,17,03,29.30
2010,07,09,17,04,29.30
2010,07,09,17,05,29.30
2010,07,09,17,06,29.30
2010,07,09,17,07,29.30
2010,07,09,17,08,29.30
2010,07,09,17,09,29.30
2010,07,09,17,10,29.20
2010,07,09,17,11,29.20
2010,07,09,17,12,29.20
2010,07,09,17,13,29.20
2010,07,09,17,14,29.20
2010,07,09,17,15,29.20
2010,07,09,17,16,29.10
2010,07,09,17,17,29.10
2010,07,09,17,18,29.10
2010,07,09,17,19,29.00